Vagabond Aaf / Yakim, WA

11:07 PM PDT on April 29, 2017 (GMT -0700)
Vagabond Aaf / Yakim

Weather History for K1YT - October, 2013

Change the Weather History Date:

Sunday, October 13, 2013

  Actual Average (KYKM) Record (KYKM)
Temperature  
Mean Temperature 48 °F -  
Max Temperature 62 °F 67 °F 80 °F (2015)
Min Temperature 35 °F 36 °F 23 °F (2002)
Degree Days  
Heating Degree Days 16    
Moisture  
Dew Point 34 °F    
Average Humidity 66    
Maximum Humidity 94    
Minimum Humidity 30    
Precipitation  
Precipitation 0.00 in - - ()
Sea Level Pressure  
Sea Level Pressure 30.23 in    
Wind  
Wind Speed 3 mph ()    
Max Wind Speed 8 mph    
Max Gust Speed -    
Visibility 12.0 miles    
Events      
Averages and records for this station are not official NWS values.
T = Trace of Precipitation, MM = Missing Value Source: Averaged Metar Reports

Daily Weather History Graph

Daily Weather History Graph

Search for Another Location

Airport or City:

Trip Planner

Search our weather history database for the weather conditions in past years. The results will help you decide how hot, cold, wet, or windy it might be!

Date:

Astronomy

Oct. 13, 2013 Rise Set
Actual Time 7:17 AM PDT 6:17 PM PDT
Civil Twilight 6:46 AM PDT 6:48 PM PDT
Nautical Twilight 6:11 AM PDT 7:23 PM PDT
Astronomical Twilight 5:36 AM PDT 7:58 PM PDT
Moon 3:29 PM PDT (10/13) 1:13 AM PDT (10/13)
Length of Visible Light 12h 01m
Length of Day
11h 00m
Waxing Gibbous, 70% of the Moon is Illuminated
Oct 13
Waxing Gibbous
Oct 18
Full
Oct 26
Last Quarter
Nov 3
New
Nov 9
First Quarter

Hourly Weather History & Observations

Time (PDT) Temp. Windchill Dew Point Humidity Pressure Visibility Wind Dir Wind Speed Gust Speed Precip Events Conditions
12:56 AM 37.9 °F - 33.4 °F 84% 30.18 in 12.0 mi WSW 2.3 mph - N/A   Clear
1:56 AM 36.0 °F 33.3 °F 33.4 °F 91% 30.19 in 12.0 mi SE 3.5 mph - N/A   Clear
2:56 AM 37.6 °F 35.1 °F 34.7 °F 89% 30.20 in 12.0 mi SSW 3.5 mph - N/A   Clear
3:56 AM 38.5 °F - 34.9 °F 87% 30.21 in 12.0 mi West 2.3 mph - N/A   Clear
4:56 AM 35.6 °F - 34.0 °F 94% 30.22 in 12.0 mi North 2.3 mph - N/A   Clear
5:56 AM 36.1 °F - 32.2 °F 86% 30.23 in 12.0 mi Variable 2.3 mph - N/A   Clear
6:56 AM 35.8 °F 29.4 °F 34.2 °F 94% 30.24 in 12.0 mi NE 8.1 mph - N/A   Clear
7:56 AM 36.5 °F - 34.3 °F 92% 30.26 in 12.0 mi NNE 2.3 mph - N/A   Clear
8:56 AM 37.2 °F - 34.2 °F 89% 30.27 in 12.0 mi Calm Calm - N/A   Clear
9:56 AM 45.9 °F 43.6 °F 38.5 °F 75% 30.27 in 12.0 mi NNW 4.6 mph - N/A   Clear
10:56 AM 49.3 °F - 38.7 °F 67% 30.27 in 12.0 mi WNW 4.6 mph - N/A   Clear
11:56 AM 55.4 °F - 37.2 °F 50% 30.26 in 12.0 mi West 5.8 mph - N/A   Clear
12:56 PM 57.4 °F - 34.9 °F 43% 30.24 in 12.0 mi Variable 4.6 mph - N/A   Clear
1:56 PM 60.4 °F - 31.6 °F 34% 30.22 in 12.0 mi West 5.8 mph - N/A   Clear
2:56 PM 61.7 °F - 30.7 °F 31% 30.21 in 12.0 mi WNW 5.8 mph - N/A   Clear
3:56 PM 62.2 °F - 30.0 °F 30% 30.21 in 12.0 mi NW 4.6 mph - N/A   Clear
4:56 PM 61.0 °F - 30.7 °F 32% 30.21 in 12.0 mi West 4.6 mph - N/A   Clear
5:56 PM 58.1 °F - 31.3 °F 36% 30.22 in 12.0 mi SW 3.5 mph - N/A   Clear
6:56 PM 51.4 °F - 31.5 °F 46% 30.24 in 12.0 mi South 5.8 mph - N/A   Clear